Regional Weather Roundup
Issued by NWS

Home | Current Version | Previous Version | Text Only | Print | Product List | Glossary On
Versions: 1 2 3 4 5 6 7 8 9 10 11 12 13 14 15 16 17 18 19 20 21 22 23 24 25 26 27 28 29 30 31 32 33 34 35 36 37 38 39 40 41 42 43 44 45 46 47 48 49 50
000
ASUS43 KLOT 312110
RWRIL

ILLINOIS REGIONAL WEATHER ROUNDUP
NATIONAL WEATHER SERVICE CHICAGO/ROMEOVILLE IL
300 PM CST SAT JAN 31 2015

NOTE: "FAIR" INDICATES FEW OR NO CLOUDS BELOW 12,000 FEET WITH NO
SIGNIFICANT WEATHER AND/OR OBSTRUCTIONS TO VISIBILITY.

* THESE STATIONS ARE NOT UNDER NWS QUALITY CONTROL. THEY ALSO MAY NOT
  REPORT WEATHER SUCH AS PRECIPITATION OR FOG.

ILZ001-002-007-009-015-016-024-312200-
NORTHWEST ILLINOIS

CITY           SKY/WX    TMP DP  RH WIND       PRES   REMARKS
MOLINE         CLOUDY    36  33  89 SW6       30.16F FOG     WCI  31
STERLING*        N/A    N/A N/A N/A MISG        N/A
SAVANNA*       CLOUDY    37  30  76 SW6       30.16S WCI  32
$$

ILZ003-004-008-010-011-017-018-312200-
NORTH CENTRAL ILLINOIS

CITY           SKY/WX    TMP DP  RH WIND       PRES   REMARKS
ROCKFORD       CLOUDY    36  25  64 W6        30.17S WCI  31
FREEPORT*      CLOUDY    35  26  69 CALM      30.17R
ROCHELLE*      CLOUDY    34  30  85 W6        30.17S WCI  29
DE KALB*       CLOUDY    33  27  78 W8        30.16S WCI  26
PERU*          CLOUDY    37  32  83 SW6       30.18S HAZE    WCI  32
$$

ILZ005-006-012>014-019>023-312200-
NORTHEAST ILLINOIS

CITY           SKY/WX    TMP DP  RH WIND       PRES   REMARKS
CHICAGO-OHARE  CLOUDY    35  25  66 W8        30.16S WCI  29
CHICAGO-MIDWAY CLOUDY    38  27  64 W8        30.17R WCI  32
AURORA         CLOUDY    37  28  70 SW10      30.17S WCI  30
LANSING*       CLOUDY    38  28  68 SW10      30.18R WCI  30
JOLIET*        CLOUDY    37  28  70 SW7       30.17F WCI  32
WAUKEGAN       CLOUDY    36  23  59 NW3       30.15S
DUPAGE AIRPORT CLOUDY    36  27  69 SW7       30.16S WCI  30
KANKAKEE*      CLOUDY    37  31  79 SW7       30.20S WCI  31
WHEELING       CLOUDY    36  24  62 SW6       30.18R WCI  31
MORRIS*        CLOUDY    37  32  82 SW9       30.17F WCI  30
ROMEOVILLE*    CLOUDY    37  29  73 W12       30.17S WCI  29
NORTHERLY ISL    N/A     37  24  60 W7          N/A  WCI  32
$$

LMZ740>746-312200-
SOUTHERN LAKE MICHIGAN

STATION/POSITION SKY/WX   TEMP    WIND        PRES    VSBY  WAVE
                          AIR SEA DIR/SP/G                  HT/PER
                          (F)     (DEG/KT/KT) (MB)    (MI)  (FT/S)
WAUKEGAN HARBOR            35      CALM  /  4   N/A
HARRISON CRIB              35     290/  7/  7   N/A
BURNHAM HARBOR             37     240/  5/  8   N/A
CALUMET HARBOR             38     240/  7/ 10   N/A
MICHIGAN CITY              36     200/  7/  8   N/A
$$

ILZ025>027-034>036-040-047-049-050-058-095>099-312200-
WEST-CENTRAL ILLINOIS

CITY           SKY/WX    TMP DP  RH WIND       PRES   REMARKS
QUINCY         LGT RAIN  34  32  92 E3        30.18F FOG
GALESBURG*     LGT RAIN  35  34  98 S7        30.17F WCI  29
MACOMB*        LGT RAIN  35  34  98 S8        30.21F WCI  28
JACKSONVILLE*  LGT RAIN  39  32  75 CALM      30.21F
PITTSFIELD*    RAIN      36  33  87 CALM      30.21F
$$

ILZ028>032-037-038-041>044-048-051>054-059>061-312200-
CENTRAL ILLINOIS

CITY           SKY/WX    TMP DP  RH WIND       PRES   REMARKS
PONTIAC        CLOUDY    39  32  77 SW7       30.20F WCI  34
BLOOMINGTON    CLOUDY    38  30  73 SW9       30.21F WCI  31
DECATUR        MIX PCPN  37  29  72 SW10      30.23F WCI  30
PEORIA         LGT RAIN  37  32  82 SW8       30.20F WCI  31
LACON*         DRIZZLE   38  35  89 SW7       30.18S WCI  32
LINCOLN*       RAIN      38  30  72 SW6       30.23F WCI  34
SPRINGFIELD    CLOUDY    38  30  73 SW7       30.23F WCI  33
TAYLORVILLE    DRIZZLE   36  32  87 SW6       30.24S WCI  31
$$

ILZ033-039-045-046-055>057-062-063-312200-
EAST-CENTRAL ILLINOIS

CITY           SKY/WX    TMP DP  RH WIND       PRES   REMARKS
CHAMPAIGN      CLOUDY    37  29  72 SW10      30.23S WCI  30
DANVILLE*      CLOUDY    37  29  71 SW9       30.20S WCI  30
RANTOUL*       CLOUDY    38  32  77 SW12      30.21F WCI  31
MATTOON        LGT RAIN  36  28  73 SW7       30.24F WCI  30
PARIS*         CLOUDY    38  30  72 SW8       30.26R WCI  32
$$

ILZ079-100>102-312200-
SOUTHWEST ILLINOIS

CITY           SKY/WX    TMP DP  RH WIND       PRES   REMARKS
BELLEVILLE     CLOUDY    43  28  54 W1        30.23F
CAHOKIA*       CLOUDY    45  29  53 CALM      30.24R
SPARTA*        CLOUDY    40  26  56 SE5       30.24F
$$

ILZ064>066-069>071-074>076-080>082-084>086-088>090-092>094-312200-
SOUTH-CENTRAL ILLINOIS

CITY           SKY/WX    TMP DP  RH WIND       PRES   REMARKS
CARBONDALE     CLOUDY    42  23  46 SE5       30.25F
CAIRO*         CLOUDY    46  26  47 SW7       30.29R
EFFINGHAM*     CLOUDY    41  24  51 SE3       30.26F
MARION         CLOUDY    43  25  49 SE9       30.26F
MT. VERNON     CLOUDY    43  27  52 CALM      30.26F
CENTRALIA*     CLOUDY    41  28  58 SE3       30.24F
SALEM*         CLOUDY    43  26  50 S5        30.26S
METROPOLIS*    CLOUDY    45  26  48 E8        30.24F
$$

ILZ067-068-072-073-078-083-087-091-312200-
SOUTHEAST ILLINOIS

CITY           SKY/WX    TMP DP  RH WIND       PRES   REMARKS
LAWRENCEVILLE  CLOUDY    42  27  55 SW7       30.29F
FLORA*         CLOUDY    39  28  64 S6        30.27F WCI  35
FAIRFIELD*     CLOUDY    42  28  56 E3        30.25F
HARRISBURG*    CLOUDY    42  29  58 E6        30.27F
ROBINSON*      CLOUDY    40  26  59 SW6       30.29S
CARMI*         CLOUDY    44  29  55 SE5       30.27F
$$

ABBREVIATIONS USED IN REMARKS
   TC - TEMPERATURE IN CELSIUS
  WCI - WIND CHILL INDEX
   HX - HEAT INDEX
  VSB - VISIBILITY
$$



USA.gov is the U.S. government's official web portal to all federal, state and local government web resources and services.